Location: Oshawa
(43.9000°N, 78.8670°W)
Time: 14:15:36
(UTC-04:00)

Iridium 98 - Visible Passes

Search period start: 30 May 2016 00:00
Search period end: 09 June 2016 00:00
Orbit: 776 x 779 km, 86.4° (Epoch: 29 May)

Date Brightness Start Highest point End Pass type
(mag) Time Alt. Az. Time Alt. Az. Time Alt. Az.
30 May 7.8 21:59:04 10° SW 22:03:20 25° WNW 22:07:39 10° NNW visible
31 May 6.8 21:24:38 10° SSW 21:29:36 44° W 21:34:36 10° N visible
02 Jun 8.2 22:00:05 10° WSW 22:03:38 18° WNW 22:07:12 10° NNW visible
03 Jun 7.5 21:25:12 10° SW 21:29:49 31° WNW 21:34:27 10° NNW visible
05 Jun 8.6 22:01:40 10° W 22:03:59 13° WNW 22:06:18 10° NW visible
06 Jun 8.2 21:26:01 10° SW 21:30:05 23° WNW 21:34:10 10° NNW visible
